Location: *
(51.0333°S, 178.4667°E)
Time: 19:29:59
(UTC+00:00)

STARLINK-79 - Pass Details

Date: 15 November 2019
Orbit: 529 x 530 km, 53.0° (Epoch: 14 December)

Event Time Altitude Azimuth Distance (km) Brightness Sun altitude
Rises 11:13:46 0° 252° (WSW) 2,693 7.5 -20.0°
Reaches altitude 10° 11:16:00 10° 252° (WSW) 1,800 6.6 -20.1°
Maximum altitude 11:20:05 78° 338° (NNW) 555 3.4 -20.2°
Enters shadow 11:20:53 55° 49° (NE) 648 3.6 -20.2°
